Lexington Weather

Lexington, Massachusetts, USA

69°F
7/3/2020 11:56am 
  • Lexington Conditions: Overcast
  • Temperature: 68.5°F / 20.3°CColder 0.8°F than last hour.
  • Dew Point: 64.6°FDecreased 1.2°Fsince last hour.
  • Relative Humidity: 87%Decreased 2.0% since last hour.
  • Wind: Wind from WNW WNW Calm, 10-min avg: 1 mph, gust: 4 mph
  • Barometer: 29.86 inRising 0.02  inHg/hr Rising Slowly
  • Visibility: 10 miles
  • Rain Today: 0.00 in
  •   

Regional Weather Roundup
for Boston / Norton, MA

        
000
ASUS41 KBOX 291804
RWRBOX

REGIONAL WEATHER ROUNDUP
NATIONAL WEATHER SERVICE BOSTON/NORTON MA
200 PM EDT MON JUN 29 2020

NOTE:  "FAIR" INDICATES FEW OR NO CLOUDS BELOW 12,000 FEET WITH NO 
SIGNIFICANT WEATHER AND/OR OBSTRUCTIONS TO VISIBILITY.

MAZALL-291900-
EASTERN MASSACHUSETTS
  
CITY           SKY/WX    TMP DP  RH WIND       PRES   REMARKS
BOSTON         LGT RAIN  65  63  93 NE10      29.81S                  
6HR MIN TEMP:  65; 6HR MAX TEMP:  73; 6HR PCP:  0.07;                

BEVERLY        CLOUDY    65  63  93 NE12      29.80F                  
LAWRENCE       CLOUDY    70  66  87 NE8       29.82F                  
BEDFORD        CLOUDY    71  65  81 N8        29.79F                  
BLUE HILL        N/A     65  65 100 NE9       29.79F                  
NORWOOD        CLOUDY    70  66  87 E3        29.78F                  
MARSHFIELD     PTSUNNY   70  66  88 NE10G20   29.77F                  
PLYMOUTH       CLOUDY    70  65  84 NE12G23   29.77F                  
TAUNTON        LGT RAIN  70  66  87 VRB5      29.78R                  
NEW BEDFORD    TSTM      67  66  97 N12G18    29.76R FOG              
$$

MAZALL-291900-
CAPE COD AND THE ISLANDS
  
CITY           SKY/WX    TMP DP  RH WIND       PRES   REMARKS
FALMOUTH       PTSUNNY   72  66  83 N12G17    29.77R                  
HYANNIS        CLOUDY    74  67  78 NE9       29.76S                  
CHATHAM        CLOUDY    67  63  87 E10         N/A  FOG              
PROVINCETOWN   CLOUDY    69  66  90 NE12      29.80S                  
NANTUCKET      CLOUDY    69  66  90 SE6       29.76S                  
MARTHAS VNYRD  PTSUNNY   77  70  79 E10       29.75F                  
$$
 
MAZALL-291900-
CENTRAL AND WESTERN MASSACHUSETTS
  
CITY           SKY/WX    TMP DP  RH WIND       PRES   REMARKS
WORCESTER      LGT RAIN  69  65  86 N8        29.83S                  
6HR MIN TEMP:  66; 6HR MAX TEMP:  72; 6HR PCP:  0.02;                

FITCHBURG      CLOUDY    72  65  78 NE3       29.82S                  
ORANGE         TSTM      72  67  84 N7        29.83S                  
SPRINGFIELD    PTSUNNY   79  63  58 NE5       29.78F                  
WESTFIELD      MOSUNNY   77  63  61 N5        29.79F                  
NORTH ADAMS    PTSUNNY   77  64  64 VRB6      29.82F                  
PITTSFIELD     PTSUNNY   76  63  64 N6        29.84F                  
$$
 
RIZALL-291900-
RHODE ISLAND
  
CITY           SKY/WX    TMP DP  RH WIND       PRES   REMARKS
PROVIDENCE     PTSUNNY   73  65  75 NE12      29.78S                  
6HR MIN TEMP:  69; 6HR MAX TEMP:  82; 6HR PCP: TRACE;                

NEWPORT        LGT RAIN  73  66  78 N12       29.78R                  
BLOCK ISLAND   MOSUNNY   76  66  71 NW6       29.79R                  
SMITHFIELD     PTSUNNY   71  68  90 N12       29.80S                  
WESTERLY       PTSUNNY   75  67  76 SE7       29.78R                  
$$
 
CTZALL-291900-
CONNECTICUT
  
CITY           SKY/WX    TMP DP  RH WIND       PRES   REMARKS
BRADLEY INTL   PTSUNNY   79  60  52 N9G16     29.78F                  
6HR MIN TEMP:  69; 6HR MAX TEMP:  82;                                

HARTFORD       MOSUNNY   83  62  49 N9        29.77F                  
BRIDGEPORT     LGT RAIN  71  64  78 S7        29.81R                  
DANBURY        MOSUNNY   80  63  55 NW8G16    29.82F                  
GROTON         MOSUNNY   80  67  64 NW7       29.76S                  
NEW HAVEN      MOSUNNY   75  68  78 SW9       29.79S                  
CHESTER        FAIR      84  63  48 N8        29.79                   
MERIDEN        NOT AVBL                                               
WILLIMANTIC    LGT RAIN  77  67  71 N10G22    29.78F                  
OXFORD         MOSUNNY   69  68  96 VRB3      29.84S                  
$$

MEZ002-015-021-024-NHZ003-005-008-011-012-014-VTZ005-008-291900-
NORTHERN NEW ENGLAND
  
CITY           SKY/WX    TMP DP  RH WIND       PRES   REMARKS
PORTLAND ME    RAIN      65  61  87 NE13      29.86R VSB 1            
6HR MIN TEMP:  63; 6HR MAX TEMP:  66; 6HR PCP:  0.91;                

BANGOR ME      LGT RAIN  68  64  87 E10       29.91S                  
CONCORD NH     CLOUDY    72  62  71 N13       29.83S                  
MANCHESTER NH  PTSUNNY   77  62  59 N14       29.80F                  
NASHUA NH      CLOUDY    75  66  73 NE7       29.81F                  
PORTSMOUTH NH  CLOUDY    67  61  79 NE9       29.81                   
JAFFREY NH     CLOUDY    72  60  66 NE8       29.84S                  
KEENE NH       PTSUNNY   71  65  81 N6        29.84R                  
BURLINGTON VT  LGT RAIN  69  66  90 N10       29.90R FOG              
MT. WASHINGTON LGT RAIN  46  46 100 E40G52      N/A  VSB 0            
$$

NYZ052-076-291900-
EASTERN NEW YORK
  
CITY           SKY/WX    TMP DP  RH WIND       PRES   REMARKS
ALBANY         PTSUNNY   80  61  52 N8        29.83F THUNDER          
6HR MIN TEMP:  70; 6HR MAX TEMP:  83;                                

NEW YORK CITY  MOSUNNY   86  59  39 N13G18    29.79F                  
6HR MIN TEMP:  75; 6HR MAX TEMP:  86;                                

$$
 
ANZALL-291900-
MARINE OBSERVATIONS
  
STATION/POSITION TIME  TEMP    WIND        PRES    VSBY  WAVE
                       AIR SEA DIR/SP/G                  HT/PER
                 (UTC) (F)     (DEG/KT/KT) (MB)    (MI)  (FT/S)
BOSTON BUOY      1650   65 69   30/ 14/ 16 1008.3          2/ 7
BUZZARDS BAY     1700           50/  4/  4 1009.0F
NANTUCKET SOUND  1750   67 70  100/ 10/ 12 1007.3S         1
MASS BAY-STELLWA 1704   62      30/ 16/ 19 1007.5R  1 7/8  2/ 3
ISLE OF SHOALS   1700   60      10/ 22/ 24 1009.6R
S OF BLOCK IS    1726      71                N/A           3/11
$$

......................KEY.........................
  SKY/WX - SKY CONDITION/PRESENT WEATHER
  TMP    - TEMPERATURE IN FAHRENHEIT
  DWPT   - DEWPOINT IN FAHRENHEIT
  RH     - RELATIVE HUMIDITY IN PERCENT
  WIND   - DIRECTION AND SPEED IN MPH
  PRES   - MEAN SEA LEVEL PRESSURE IN INCHES OF HG
  WCI    - WIND CHILL INDEX
  VSB    - VISIBILITY IN MILES
  HX     - HEAT INDEX
  TC     - TEMPERATURE IN CELSIUS
  VRB    - VARIABLE WIND DIRECTION
  N/A    - NOT AVAILABLE
  
      

Other recent Regional Weather Roundups

Fri Jul 3, 11:04am

Fri Jul 3, 10:04am

Fri Jul 3, 9:04am

Fri Jul 3, 8:04am

Fri Jul 3, 7:04am

Fri Jul 3, 6:04am

Fri Jul 3, 5:04am

Fri Jul 3, 4:04am

Fri Jul 3, 3:04am

Fri Jul 3, 2:04am

Fri Jul 3, 1:04am

Fri Jul 3, 12:04am

Thu Jul 2, 11:05pm

Thu Jul 2, 10:04pm

Thu Jul 2, 9:04pm

Thu Jul 2, 8:04pm

Thu Jul 2, 7:05pm

Thu Jul 2, 6:04pm

Thu Jul 2, 5:05pm

Thu Jul 2, 4:04pm

Thu Jul 2, 3:04pm

Thu Jul 2, 2:04pm

Thu Jul 2, 1:05pm

Thu Jul 2, 12:04pm

Thu Jul 2, 11:04am

Thu Jul 2, 10:05am

Thu Jul 2, 9:05am

Thu Jul 2, 8:04am

Thu Jul 2, 7:04am

Thu Jul 2, 6:05am

Thu Jul 2, 5:04am

Thu Jul 2, 4:04am

Thu Jul 2, 3:04am

Thu Jul 2, 2:04am

Thu Jul 2, 1:04am

Thu Jul 2, 12:05am

Wed Jul 1, 11:05pm

Wed Jul 1, 10:04pm

Wed Jul 1, 9:04pm

Wed Jul 1, 8:04pm

Wed Jul 1, 7:04pm

Wed Jul 1, 6:04pm

Wed Jul 1, 5:05pm

Wed Jul 1, 4:04pm

Wed Jul 1, 3:04pm

Wed Jul 1, 2:04pm

Wed Jul 1, 1:04pm

Wed Jul 1, 12:04pm

Wed Jul 1, 11:04am

Wed Jul 1, 10:04am

Wed Jul 1, 9:04am

Wed Jul 1, 8:05am

Wed Jul 1, 7:04am

Wed Jul 1, 6:04am

Wed Jul 1, 5:04am

Wed Jul 1, 4:04am

Wed Jul 1, 3:04am

Wed Jul 1, 2:04am

Wed Jul 1, 1:04am

Wed Jul 1, 12:04am

Tue Jun 30, 11:04pm

Tue Jun 30, 10:05pm

Tue Jun 30, 9:04pm

Tue Jun 30, 8:05pm

Tue Jun 30, 7:05pm

Tue Jun 30, 6:04pm

Tue Jun 30, 5:04pm

Tue Jun 30, 4:04pm

Tue Jun 30, 3:04pm

Tue Jun 30, 2:04pm

Tue Jun 30, 1:04pm

Tue Jun 30, 12:04pm

Tue Jun 30, 11:04am

Tue Jun 30, 10:04am

Tue Jun 30, 9:04am

Tue Jun 30, 8:04am

Tue Jun 30, 7:04am

Tue Jun 30, 6:04am

Tue Jun 30, 5:04am

Tue Jun 30, 4:04am

Tue Jun 30, 3:04am

Tue Jun 30, 2:04am

Tue Jun 30, 1:04am

Tue Jun 30, 12:04am

Mon Jun 29, 11:04pm

Mon Jun 29, 10:05pm

Mon Jun 29, 9:04pm

Mon Jun 29, 8:05pm

Mon Jun 29, 7:04pm

Mon Jun 29, 6:04pm

Mon Jun 29, 5:04pm

Mon Jun 29, 4:05pm

Mon Jun 29, 3:04pm

Mon Jun 29, 1:04pm

Mon Jun 29, 12:04pm

Mon Jun 29, 11:04am

Mon Jun 29, 10:04am

Mon Jun 29, 9:04am

Mon Jun 29, 8:04am

Mon Jun 29, 7:04am

Mon Jun 29, 6:04am

Mon Jun 29, 5:04am

Mon Jun 29, 4:04am

Mon Jun 29, 3:04am

Mon Jun 29, 2:04am

Mon Jun 29, 1:04am

Mon Jun 29, 12:04am

Sun Jun 28, 11:05pm

Sun Jun 28, 10:04pm

Sun Jun 28, 9:05pm

Sun Jun 28, 8:04pm

Sun Jun 28, 7:04pm

Sun Jun 28, 6:04pm

Sun Jun 28, 5:04pm

Sun Jun 28, 4:04pm

Sun Jun 28, 3:04pm

Sun Jun 28, 2:05pm

Sun Jun 28, 1:04pm

Sun Jun 28, 12:04pm

Sun Jun 28, 11:04am

Sun Jun 28, 10:04am

Sun Jun 28, 9:04am

Sun Jun 28, 8:04am

Sun Jun 28, 7:04am

Sun Jun 28, 6:04am

Sun Jun 28, 5:04am

Sun Jun 28, 4:04am

Sun Jun 28, 3:04am

Sun Jun 28, 2:05am

Sun Jun 28, 1:04am

Sun Jun 28, 12:05am

Sat Jun 27, 11:04pm

Sat Jun 27, 10:04pm

Sat Jun 27, 9:04pm

Sat Jun 27, 8:04pm

Sat Jun 27, 7:04pm

Sat Jun 27, 6:04pm

Sat Jun 27, 5:04pm

Sat Jun 27, 4:05pm

Sat Jun 27, 3:04pm

Sat Jun 27, 2:04pm

Sat Jun 27, 1:05pm

Sat Jun 27, 12:04pm

Sat Jun 27, 11:04am

Sat Jun 27, 10:04am

Sat Jun 27, 9:04am

Sat Jun 27, 8:04am

Sat Jun 27, 7:04am

Sat Jun 27, 6:04am

Sat Jun 27, 5:05am

Sat Jun 27, 4:04am

Sat Jun 27, 3:04am

Sat Jun 27, 2:04am

Sat Jun 27, 1:04am

Sat Jun 27, 12:04am

Fri Jun 26, 11:04pm

Fri Jun 26, 10:04pm

Fri Jun 26, 9:05pm

Fri Jun 26, 8:04pm

Fri Jun 26, 7:05pm

Fri Jun 26, 6:04pm

Fri Jun 26, 5:04pm

Fri Jun 26, 4:04pm

Fri Jun 26, 3:04pm

Fri Jun 26, 2:05pm

Fri Jun 26, 1:04pm

Fri Jun 26, 12:05pm

Meta data:

ID: f218dfae-2e0e-4715-a7d5-f694e373fbbb
Link: https://api.weather.gov/products/f218dfae-2e0e-4715-a7d5-f694e373fbbb